Brno, Czech Republic

6:20 PM CET on December 13, 2017 (GMT +0100)
Turany

Weather History for LKTB - May, 2013

Change the Weather History Date:

Thursday, May 2, 2013

  Actual Average Record
Temperature  
Mean Temperature 58 °F -  
Max Temperature 65 °F 67 °F - ()
Min Temperature 50 °F 47 °F - ()
Degree Days  
Heating Degree Days 8    
Growing Degree Days 8 (Base 50)    
Moisture  
Dew Point 53 °F    
Average Humidity 81    
Maximum Humidity 94    
Minimum Humidity 70    
Precipitation  
Precipitation 0.02 in 0.08 in - ()
Sea Level Pressure  
Sea Level Pressure 30.02 in    
Wind  
Wind Speed 11 mph ()    
Max Wind Speed 17 mph    
Max Gust Speed -    
Visibility 4.4 miles    
Events Rain    
T = Trace of Precipitation, MM = Missing Value Source: Averaged Metar Reports

Daily Weather History Graph

Daily Weather History Graph

Search for Another Location

Airport or City:

Trip Planner

Search our weather history database for the weather conditions in past years. The results will help you decide how hot, cold, wet, or windy it might be!

Date:

Astronomy

May. 02, 2013 Rise Set
Actual Time 5:30 AM CEST 8:11 PM CEST
Civil Twilight 4:54 AM CEST 8:47 PM CEST
Nautical Twilight 4:08 AM CEST 9:33 PM CEST
Astronomical Twilight 3:14 AM CEST 10:27 PM CEST
Moon 1:46 AM CEST (5/2) 12:01 PM CEST (5/2)
Length of Visible Light 15h 52m
Length of Day
14h 40m
Waning Gibbous, 51% of the Moon is Illuminated
May 2
Waning Gibbous
May 2
Last Quarter
May 10
New
May 18
First Quarter
May 25
Full

Hourly Weather History & Observations

Time (CEST) Temp. Dew Point Humidity Pressure Visibility Wind Dir Wind Speed Gust Speed Precip Events Conditions
12:00 AM 55.4 °F 46.4 °F 72% 30.09 in - NE 17.3 mph - N/A   Clear
12:30 AM 55.4 °F 46.4 °F 72% 30.06 in - ENE 17.3 mph - N/A   Clear
1:00 AM 53.6 °F 46.4 °F 77% 30.06 in - NE 16.1 mph - N/A   Clear
1:30 AM 53.6 °F 46.4 °F 77% 30.06 in - ENE 15.0 mph - N/A   Clear
2:00 AM 53 °F 46 °F 70% 30.06 in 7 mi ENE 15.7 mph - -   Clear
2:00 AM 53.6 °F 46.4 °F 77% 30.04 in - ENE 16.1 mph - N/A   Clear
2:30 AM 53.6 °F 46.4 °F 77% 30.04 in - ENE 15.0 mph - N/A   Clear
3:00 AM 53.6 °F 46.4 °F 77% 30.04 in - ENE 12.7 mph - N/A   Clear
3:30 AM 51.8 °F 46.4 °F 82% 30.06 in - NW 9.2 mph - N/A   Clear
4:00 AM 53.6 °F 46.4 °F 77% 30.06 in - NNW 10.4 mph - N/A   Clear
4:30 AM 51.8 °F 46.4 °F 82% 30.06 in - North 9.2 mph - N/A   Clear
5:00 AM 53.6 °F 46.4 °F 77% 30.06 in 5.0 mi NE 6.9 mph - N/A   Unknown
5:30 AM 53.6 °F 46.4 °F 77% 30.04 in 4.3 mi NE 6.9 mph - N/A   Unknown
6:00 AM 51.8 °F 46.4 °F 82% 30.04 in 3.7 mi East 8.1 mph - N/A   Unknown
6:30 AM 51.8 °F 46.4 °F 82% 30.04 in 4.3 mi ENE 11.5 mph - N/A   Unknown
6:50 AM 53.6 °F 48.2 °F 82% 30.01 in 4.3 mi ENE 17.3 mph - N/A Rain Light Rain
7:00 AM 53.6 °F 48.2 °F 82% 30.01 in 4.3 mi ENE 17.3 mph - N/A Rain Light Rain
7:30 AM 53.6 °F 48.2 °F 82% 30.04 in 4.3 mi East 15.0 mph - N/A Rain Light Rain
8:00 AM 54 °F 48 °F 75% 30.10 in 4 mi ENE 6.7 mph - - Rain Light Rain
8:00 AM 53.6 °F 48.2 °F 82% 30.09 in 3.7 mi ESE 9.2 mph - N/A Rain Light Rain
8:30 AM 53.6 °F 50.0 °F 88% 30.06 in 3.7 mi East 5.8 mph - N/A Rain Light Rain
9:00 AM 53.6 °F 48.2 °F 82% 30.06 in 3.7 mi NE 5.8 mph - N/A Rain Light Rain
9:30 AM 55.4 °F 50.0 °F 82% 30.06 in 3.7 mi East 4.6 mph - N/A Rain Light Rain
10:00 AM 55.4 °F 50.0 °F 82% 30.06 in 3.7 mi North 5.8 mph - N/A Rain Light Rain
10:30 AM 57.2 °F 51.8 °F 82% 30.06 in 4.3 mi North 3.5 mph - N/A Rain Light Rain
11:00 AM 59.0 °F 51.8 °F 77% 30.04 in 3.7 mi WNW 4.6 mph - N/A Rain Light Rain
11:30 AM 59.0 °F 53.6 °F 82% 30.06 in 3.7 mi ESE 8.1 mph - N/A Rain Light Rain
12:00 PM 59.0 °F 55.4 °F 88% 30.04 in 3.1 mi ENE 9.2 mph - N/A Rain Light Rain
12:30 PM 62.6 °F 59.0 °F 88% 30.04 in 3.7 mi East 11.5 mph - N/A   Unknown
1:00 PM 60.8 °F 55.4 °F 82% 30.04 in 3.7 mi ENE 11.5 mph - N/A   Scattered Clouds
1:07 PM 60.8 °F 55.4 °F 82% 30.04 in 3.1 mi ENE 10.4 mph - N/A Rain Light Rain
1:30 PM 59.0 °F 55.4 °F 88% 30.04 in - ENE 12.7 mph - N/A Rain Light Rain
2:00 PM 60 °F 56 °F 83% 30.03 in 3 mi ENE 13.4 mph - - Rain Light Rain
2:00 PM 60.8 °F 55.4 °F 82% 30.04 in 2.8 mi ENE 12.7 mph - N/A Rain Light Rain
2:30 PM 62.6 °F 57.2 °F 82% 30.01 in - ENE 12.7 mph - N/A   Mist
3:00 PM 60.8 °F 55.4 °F 82% 30.01 in 3.1 mi ENE 13.8 mph - N/A   Mist
3:09 PM 60.8 °F 55.4 °F 82% 30.01 in 3.1 mi ENE 12.7 mph - N/A Rain Light Rain
3:30 PM 62.6 °F 57.2 °F 82% 30.01 in 3.1 mi ENE 12.7 mph - N/A Rain Light Rain
4:00 PM 64.4 °F 55.4 °F 73% 30.01 in 5.0 mi ENE 11.5 mph - N/A   Unknown
4:30 PM 64.4 °F 55.4 °F 73% 29.98 in 5.6 mi ENE 11.5 mph - N/A   Unknown
5:00 PM 64.4 °F 57.2 °F 77% 29.98 in - ENE 11.5 mph - N/A   Clear
5:30 PM 64.4 °F 57.2 °F 77% 29.98 in - ENE 9.2 mph - N/A   Clear
6:00 PM 64.4 °F 57.2 °F 77% 29.98 in - ENE 8.1 mph - N/A   Clear
6:10 PM 64.4 °F 57.2 °F 77% 29.98 in 6.2 mi ENE 8.1 mph - N/A Rain Light Rain
6:30 PM 62.6 °F 57.2 °F 82% 29.98 in 6.2 mi ENE 6.9 mph - N/A Rain Light Rain
6:40 PM 64.4 °F 57.2 °F 77% 29.98 in 6.2 mi ENE 5.8 mph - N/A Rain Light Rain
7:00 PM 64.4 °F 57.2 °F 77% 29.98 in 6.2 mi NNE 5.8 mph - N/A Rain Light Rain
7:30 PM 62.6 °F 57.2 °F 82% 29.98 in 6.2 mi North 4.6 mph - N/A Rain Light Rain
8:00 PM 61 °F 56 °F 80% 29.95 in 7 mi North 8.9 mph - - Rain Light Rain
8:00 PM 62.6 °F 57.2 °F 82% 29.95 in 6.2 mi North 6.9 mph - N/A Rain Light Rain
8:30 PM 60.8 °F 57.2 °F 88% 29.95 in 6.2 mi NE 6.9 mph - N/A Rain Light Rain
9:00 PM 60.8 °F 57.2 °F 88% 29.95 in 6.2 mi ENE 8.1 mph - N/A Rain Light Rain
9:30 PM 60.8 °F 57.2 °F 88% 29.95 in 5.0 mi NE 6.9 mph - N/A Rain Light Rain
10:00 PM 60.8 °F 57.2 °F 88% 29.95 in 5.0 mi NE 10.4 mph - N/A   Unknown
10:16 PM 60.8 °F 57.2 °F 88% 29.95 in 3.1 mi NE 13.8 mph - N/A Rain Light Rain
10:30 PM 60.8 °F 57.2 °F 88% 29.95 in 3.1 mi NE 12.7 mph - N/A Rain Light Rain
11:00 PM 59.0 °F 57.2 °F 94% 29.92 in 3.1 mi ENE 15.0 mph - N/A Rain Light Rain
11:30 PM 59.0 °F 57.2 °F 94% 29.92 in 3.1 mi ENE 13.8 mph - N/A Rain Light Rain